Back to catalog

SHIJIAN 6 05A

SJ-6 05A

AliveScienceSSO
NORAD 49961·PAYLOAD·🇨🇳 China

Launched Dec 10, 2021 from Jiuquan Satellite Launch Center

Loading…

Next Passes (next 24 hours)

TLE

FreshSource: Space-Track

Epoch: Sep 14, 2026, 04:54 UTC

1 49961U 21122A   26257.20419368  .00001099  00000-0  93435-4 0  9999
2 49961  97.4230 221.5179 0003266  60.1194 300.0355 14.99765697262099

Track SHIJIAN 6 05A in real time with AllMySat

Download on the App Store